[[{"header":{"parameterUnit":"m.s-1","parameterCategory":1,"la1":30.2991,"la2":30.254,"lo1":-89.0895,"lo2":-89.0444,"dy":0.0017,"dx":0.0017,"nx":28,"ny":28,"refTime":"2024-05-31T03:00:00:Z","depth":0,"parameterNumber":2,"parameterNumberName":"U-component_of_WINDS"},"data":[0,0,0,0,0,0,0,0,0,0,0,0,0,0,0,0,0,0,0,0,0,0,0,0,0,0,0,0,0,0,0,0,0,0,0,0,0,0,0,0,0,0,0,0,0,0,0,0,0,0,0,0,0,0,0,0,0,0,-5.4428,-5.4429,0,-5.4487,-5.4487,-5.4488,-5.4462,-5.446,-5.4459,-5.4458,-5.4513,-5.4516,-5.4519,0,0,0,0,0,0,0,0,0,0,0,0,0,-5.429,-5.4293,-5.4428,-5.4429,-5.443,-5.4486,-5.4487,-5.4488,-5.4462,-5.446,-5.4459,-5.4457,-5.4512,-5.4515,-5.4519,0,0,0,0,0,0,0,0,0,0,0,0,0,-5.4349,-5.4294,-5.4428,-5.4424,-5.4424,-5.4486,-5.4487,-5.4488,-5.4462,-5.446,-5.4458,-5.4456,-5.4511,-5.4515,-5.4519,-5.4588,0,0,-5.4532,-5.4534,0,0,0,0,0,0,0,0,-5.4346,-5.4354,-5.4424,-5.4424,-5.4424,-5.4465,-5.4459,-5.4522,-5.4463,-5.4448,-5.4458,-5.4455,-5.4498,-5.4504,-5.4519,-5.4591,-5.4593,-5.4532,-5.4535,-5.4537,-5.4538,0,0,0,0,0,0,0,-5.4342,-5.4352,-5.4451,-5.4425,-5.4425,-5.4417,-5.4423,-5.4471,-5.4484,-5.4449,-5.4447,-5.4455,-5.4498,-5.4515,-5.452,-5.4594,-5.4532,-5.4536,-5.4539,-5.454,-5.4722,-5.4725,0,0,0,0,0,0,-5.4338,-5.4349,-5.4449,-5.4453,-5.4379,-5.4422,-5.4428,-5.4454,-5.4484,-5.4486,-5.4456,-5.4453,-5.4509,-5.4515,-5.4522,-5.4602,-5.4537,-5.4541,-5.4543,-5.472,-5.4723,-5.4725,0,0,0,0,0,0,-5.4336,-5.4348,-5.4447,-5.44,-5.4412,-5.4426,-5.4455,-5.4456,-5.4473,-5.4489,-5.4491,-5.4471,-5.4507,-5.4516,-5.4572,-5.4603,-5.4543,-5.4546,-5.4717,-5.4721,-5.4724,-5.4763,0,0,0,0,0,0,-5.4332,-5.4347,-5.4374,-5.4401,-5.4415,-5.4497,-5.4457,-5.4459,-5.4481,-5.4477,-5.4504,-5.4506,-5.4506,-5.4565,-5.4576,-5.4608,-5.455,-5.4714,-5.4719,-5.4723,-5.4759,-5.4768,-5.4775,0,0,0,0,0,-5.4327,-5.4382,-5.4376,-5.4388,-5.4449,-5.4499,-5.4506,-5.4507,-5.4484,-5.451,-5.452,-5.4505,-5.46,-5.4571,-5.4583,-5.4617,-5.4712,-5.4718,-5.4723,-5.4756,-5.4766,-5.4775,0,0,0,0,0,0,-5.4357,-5.4386,-5.4378,-5.4445,-5.447,-5.4494,-5.4527,-5.4518,-5.4549,-5.4544,-5.4542,-5.4549,-5.4605,-5.4617,-5.4586,-5.4684,-5.4652,-5.466,-5.4673,-5.4683,-5.4691,-5.4685,-5.4553,0,0,0,0,0,-5.4372,-5.4411,-5.4433,-5.4489,-5.4503,-5.4513,-5.4535,-5.4533,-5.4558,-5.4568,-5.4583,-5.4606,-5.4641,-5.4663,-5.4697,-5.4763,-5.4766,-5.4792,-5.48,-5.4806,-5.4811,-5.4844,-5.4855,-5.4742,-5.4742,-5.4742,0,0,-5.4401,-5.4422,-5.4446,-5.4496,-5.4515,-5.4553,-5.4522,-5.4564,-5.4592,-5.4574,-5.4626,-5.4639,-5.4665,-5.4725,-5.4752,-5.4737,-5.4844,-5.4813,-5.4818,-5.4819,-5.485,-5.4861,-5.487,-5.4746,-5.4745,-5.4745,0,0,-5.4474,-5.4496,-5.4543,-5.4564,-5.4593,-5.46,-5.4612,-5.4638,-5.4646,-5.4699,-5.4686,-5.4719,-5.4779,-5.4798,-5.4815,-5.4897,-5.4882,-5.4908,-5.4947,-5.4979,-5.4988,-5.4996,-5.5021,-5.5031,-5.4914,-5.4914,-5.4914,0,-5.4507,-5.4565,-5.4569,-5.4612,-5.4633,-5.4621,-5.4667,-5.4687,-5.4725,-5.4739,-5.4722,-5.4797,-5.4814,-5.4877,-5.4897,-5.4913,-5.4924,-5.4902,-5.4987,-5.4995,-5.5002,-5.5026,-5.5036,-5.4916,-5.4916,-5.4916,-5.4916,0,-5.4602,-5.4643,-5.4678,-5.4716,-5.4742,-5.4787,-5.4795,-5.4821,-5.4818,-5.4826,-5.4879,-5.49,-5.4936,-5.4952,-5.4949,-5.5014,-5.5003,-5.4987,-5.4954,-5.5015,-5.5037,-5.5047,-5.492,-5.4919,-5.4918,-5.4918,0,0,-5.4692,-5.4733,-5.4745,-5.4761,-5.4794,-5.4825,-5.4869,-5.4906,-5.4926,-5.4954,-5.4988,-5.5041,-5.5026,-5.5046,-5.5045,-5.5074,-5.5133,-5.5054,-5.5054,-5.5064,-5.5202,-5.5211,-5.5222,-5.5126,-5.5128,-5.513,-5.5199,0,-5.4764,-5.4842,-5.4846,-5.4916,-5.4952,-5.4942,-5.498,-5.5003,-5.5013,-5.5044,-5.5054,-5.509,-5.5069,-5.5081,-5.511,-5.512,-5.516,-5.5116,-5.5155,-5.5156,-5.5144,-5.5234,-5.5244,-5.5308,-5.5208,-5.521,-5.5211,0,-5.4858,-5.4889,-5.4963,-5.4989,-5.5005,-5.5039,-5.5071,-5.5103,-5.5129,-5.5133,-5.5156,-5.5152,-5.5195,-5.5165,-5.5223,-5.5192,-5.5209,-5.5217,-5.522,-5.5219,-5.5184,-5.5233,-5.5329,-5.5337,-5.5225,-5.5224,-5.5223,0,-5.4911,-5.4972,-5.5023,-5.5038,-5.5072,-5.5095,-5.511,-5.5134,-5.5155,-5.5185,-5.5198,-5.5232,-5.5249,-5.5275,-5.5279,-5.5257,-5.5336,-5.5306,-5.5338,-5.5338,-5.5351,-5.535,-5.5448,-5.537,-5.537,-5.537,-5.537,0,-5.4989,-5.5033,-5.5047,-5.5078,-5.5127,-5.5132,-5.518,-5.5193,-5.5215,-5.5247,-5.5241,-5.5271,-5.5277,-5.5308,-5.5312,-5.5357,-5.5367,-5.5369,-5.5369,-5.5367,-5.5366,-5.5375,-5.5369,-5.5372,-5.5372,-5.5371,-5.5371,0,-5.5054,-5.5066,-5.5121,-5.5148,-5.5156,-5.5191,-5.5213,-5.5242,-5.5252,-5.5293,-5.5303,-5.5317,-5.5353,-5.5361,-5.5404,-5.5407,-5.546,-5.5457,-5.5451,-5.5449,-5.5479,-5.5474,-5.5582,-5.5595,-5.5513,-5.5514,-5.5515,0,-5.5101,-5.5134,-5.5166,-5.5188,-5.5204,-5.5239,-5.5261,-5.5268,-5.529,-5.5322,-5.5347,-5.5383,-5.5411,-5.5469,-5.5482,-5.5515,-5.551,-5.5546,-5.5515,-5.5511,-5.5506,-5.5502,-5.5504,-5.555,-5.5551,-5.5552,-5.5552,0,-5.518,-5.5185,-5.5217,-5.5252,-5.5278,-5.5305,-5.5331,-5.5349,-5.5359,-5.5385,-5.5422,-5.5445,-5.5489,-5.5523,-5.5556,-5.5569,-5.5561,-5.5563,-5.5571,-5.5568,-5.5561,-5.5561,-5.5462,-5.5559,-5.5559,-5.5558,-5.5558,-5.5557,-5.5235,-5.5264,-5.529,-5.5326,-5.5347,-5.5371,-5.5399,-5.5413,-5.5445,-5.5481,-5.5484,-5.5523,-5.5548,-5.5591,-5.5607,-5.5637,-5.5626,-5.5639,-5.5641,-5.5643,-5.5644,-5.556,-5.5644,-5.5643,-5.5643,-5.5643,-5.5643,0,-5.5311,-5.5328,-5.5361,-5.5398,-5.5426,-5.5419,-5.5448,-5.5471,-5.5506,-5.553,-5.5559,-5.5601,-5.5635,-5.5652,-5.5685,-5.5705,-5.5702,-5.5713,-5.5709,-5.5712,-5.5654,-5.5642,-5.5715,-5.5715,-5.5715,-5.5715,-5.5715,-5.5715,-5.5353,-5.5401,-5.5408,-5.5466,-5.5482,-5.5521,-5.5538,-5.556,-5.5579,-5.5626,-5.5654,-5.5666,-5.5687,-5.5721,-5.5751,-5.5756,-5.5766,-5.5778,-5.578,-5.5724,-5.5717,-5.5709,-5.5697,-5.5781,-5.5781,-5.5835,-5.5835,-5.5836]},{"header":{"parameterUnit":"m.s-1","parameterCategory":1,"la1":30.2991,"la2":30.254,"lo1":-89.0895,"lo2":-89.0444,"dy":0.0017,"dx":0.0017,"nx":28,"ny":28,"refTime":"2024-05-31T03:00:00:Z","depth":0,"parameterNumber":3,"parameterNumberName":"V-component_of_WINDS"},"data":[0,0,0,0,0,0,0,0,0,0,0,0,0,0,0,0,0,0,0,0,0,0,0,0,0,0,0,0,0,0,0,0,0,0,0,0,0,0,0,0,0,0,0,0,0,0,0,0,0,0,0,0,0,0,0,0,0,0,3.6144,3.6145,0,3.6196,3.6197,3.6197,3.6156,3.6154,3.6153,3.6151,3.6203,3.6206,3.6209,0,0,0,0,0,0,0,0,0,0,0,0,0,3.601,3.6013,3.6144,3.6145,3.6146,3.6196,3.6197,3.6197,3.6156,3.6154,3.6152,3.615,3.6202,3.6205,3.6209,0,0,0,0,0,0,0,0,0,0,0,0,0,3.6066,3.6014,3.6144,3.6131,3.6131,3.6196,3.6197,3.6198,3.6157,3.6154,3.6152,3.6149,3.6201,3.6205,3.6209,3.629,0,0,3.6223,3.6225,0,0,0,0,0,0,0,0,3.6063,3.6071,3.6133,3.6132,3.6132,3.6167,3.6168,3.6228,3.6158,3.6147,3.6151,3.6148,3.6193,3.6198,3.6213,3.6292,3.6294,3.6224,3.6226,3.6228,3.6229,0,0,0,0,0,0,0,3.6059,3.6068,3.6165,3.6134,3.6133,3.6123,3.6128,3.6179,3.6184,3.6148,3.6145,3.6152,3.6192,3.6209,3.6214,3.6295,3.6223,3.6227,3.623,3.6232,3.6443,3.6446,0,0,0,0,0,0,3.6056,3.6065,3.6163,3.6166,3.609,3.6127,3.6133,3.6158,3.6183,3.6185,3.6154,3.6149,3.6203,3.6209,3.6216,3.6311,3.6228,3.6232,3.6235,3.644,3.6443,3.6447,0,0,0,0,0,0,3.6054,3.6066,3.6161,3.6115,3.6127,3.6133,3.6161,3.6161,3.6177,3.6188,3.6188,3.617,3.6201,3.6209,3.6272,3.6313,3.6234,3.6238,3.6437,3.6441,3.6445,3.6503,0,0,0,0,0,0,3.605,3.6065,3.6095,3.6116,3.6129,3.6216,3.6164,3.6164,3.6186,3.618,3.6203,3.6205,3.6199,3.6265,3.6276,3.6317,3.6242,3.6433,3.6439,3.6444,3.6498,3.6509,3.6519,0,0,0,0,0,3.6045,3.6109,3.6097,3.6109,3.6167,3.6219,3.6226,3.6219,3.6189,3.622,3.6227,3.6204,3.6307,3.6272,3.6284,3.6327,3.643,3.6437,3.6443,3.6493,3.6507,3.6519,0,0,0,0,0,0,3.6092,3.6112,3.6098,3.6171,3.6194,3.6212,3.625,3.6234,3.6265,3.6259,3.6249,3.6254,3.632,3.633,3.6291,3.6406,3.6364,3.6373,3.6397,3.6411,3.6421,3.6417,3.6246,0,0,0,0,0,3.6111,3.6151,3.6166,3.6229,3.6241,3.6244,3.6266,3.6259,3.6282,3.6291,3.6302,3.6325,3.6362,3.6387,3.6422,3.65,3.6504,3.6535,3.6546,3.6554,3.6562,3.6604,3.6618,3.6468,3.6468,3.6468,0,0,3.615,3.6166,3.6192,3.6238,3.6255,3.6297,3.6252,3.6298,3.6329,3.6298,3.6357,3.6367,3.6392,3.6462,3.6493,3.6472,3.6605,3.6563,3.657,3.6573,3.6612,3.6626,3.6639,3.6472,3.6472,3.6471,0,0,3.6242,3.6259,3.6312,3.6331,3.6357,3.6359,3.6372,3.6393,3.6398,3.6458,3.6436,3.6473,3.6537,3.6556,3.6574,3.6676,3.6656,3.6688,3.6742,3.6783,3.6795,3.6806,3.6842,3.6855,3.6696,3.6696,3.6696,0,3.6287,3.635,3.6342,3.639,3.6412,3.6386,3.6441,3.6459,3.6495,3.6511,3.6487,3.6568,3.6583,3.6658,3.6683,3.6698,3.6713,3.6684,3.6794,3.6805,3.6814,3.6848,3.6862,3.6699,3.6699,3.6699,3.6698,0,3.6404,3.6447,3.6488,3.6524,3.655,3.6602,3.6602,3.6629,3.6621,3.6625,3.6687,3.6704,3.6743,3.676,3.6752,3.6834,3.682,3.6796,3.6752,3.6832,3.6864,3.6877,3.6705,3.6703,3.6702,3.6701,0,0,3.6525,3.6558,3.6573,3.6589,3.6617,3.6651,3.6702,3.674,3.6763,3.679,3.6832,3.6888,3.6866,3.6887,3.688,3.6917,3.6996,3.6888,3.6888,3.6907,3.7088,3.7106,3.7121,3.6984,3.6987,3.6989,3.7086,0,3.6618,3.6706,3.6702,3.6784,3.6824,3.6802,3.6846,3.6868,3.6874,3.6909,3.6916,3.6956,3.6924,3.6936,3.6971,3.6979,3.7032,3.6972,3.7023,3.7024,3.7016,3.7138,3.7156,3.7247,3.7098,3.71,3.7102,0,3.6738,3.677,3.6856,3.6879,3.6896,3.6936,3.6971,3.7005,3.703,3.7032,3.7056,3.7044,3.7095,3.7052,3.7122,3.7081,3.7102,3.711,3.7113,3.7116,3.7067,3.7144,3.7276,3.729,3.7122,3.712,3.7119,0,3.6818,3.6882,3.6942,3.6957,3.6985,3.7014,3.7027,3.7049,3.7073,3.7104,3.7119,3.7155,3.7175,3.7204,3.7202,3.7171,3.7274,3.723,3.7277,3.7277,3.7298,3.7297,3.7435,3.7313,3.7313,3.7313,3.7313,0,3.6922,3.6976,3.6978,3.7015,3.7075,3.707,3.7129,3.7139,3.716,3.7198,3.7181,3.7218,3.7214,3.7251,3.725,3.7309,3.7318,3.7321,3.732,3.7322,3.7322,3.7335,3.7328,3.7317,3.7316,3.7315,3.7314,0,3.702,3.7024,3.7088,3.711,3.7117,3.716,3.7179,3.7214,3.7219,3.7269,3.728,3.7288,3.7331,3.7333,3.7382,3.7381,3.7453,3.7445,3.7444,3.7443,3.7489,3.7484,3.7639,3.7659,3.7525,3.7527,3.7528,0,3.7086,3.7127,3.7154,3.7179,3.7194,3.7234,3.7258,3.7255,3.7281,3.7314,3.7345,3.7386,3.7419,3.7489,3.7499,3.7537,3.753,3.7581,3.7535,3.7536,3.753,3.7527,3.7531,3.759,3.7591,3.7593,3.7594,0,3.7202,3.7202,3.7238,3.7275,3.7305,3.7334,3.7361,3.7382,3.7382,3.7413,3.7456,3.7482,3.7533,3.7574,3.7611,3.7625,3.761,3.7609,3.7621,3.7623,3.7621,3.7623,3.7468,3.7605,3.7603,3.7603,3.7602,3.7602,3.7286,3.7321,3.7346,3.7387,3.7407,3.7433,3.7467,3.7477,3.7514,3.7555,3.7551,3.76,3.7625,3.7673,3.769,3.7728,3.7711,3.7729,3.7734,3.7738,3.7743,3.7616,3.7735,3.7735,3.7735,3.7734,3.7734,0,3.7401,3.7416,3.7454,3.7492,3.7524,3.7508,3.7537,3.7565,3.7609,3.7634,3.7667,3.7718,3.7758,3.7772,3.7812,3.784,3.7834,3.785,3.7848,3.7851,3.7757,3.7742,3.7854,3.7854,3.7854,3.7854,3.7854,3.7854,3.7464,3.7524,3.7527,3.7597,3.7611,3.7659,3.7678,3.7702,3.7721,3.7779,3.7813,3.7822,3.7843,3.7884,3.7921,3.7924,3.7939,3.7958,3.7958,3.787,3.7858,3.7846,3.7832,3.7962,3.7962,3.8049,3.805,3.8051]}]]